TimeEDT,TemperatureF,Dew PointF,Humidity,Sea Level PressureIn,VisibilityMPH,Wind Direction,Wind SpeedMPH,Gust SpeedMPH,PrecipitationIn,Events,Conditions,WindDirDegrees,DateUTC
12:15 AM,48.2,39.2,71,30.11,10.0,North,-9999.0,-,N/A,,Clear,0,2013-05-27 04:15:00
12:35 AM,46.4,39.2,76,30.11,10.0,North,-9999.0,-,N/A,,Clear,0,2013-05-27 04:35:00
12:55 AM,46.4,39.2,76,30.12,10.0,North,-9999.0,-,N/A,,Clear,0,2013-05-27 04:55:00
1:15 AM,46.4,39.2,76,30.12,10.0,North,-9999.0,-,N/A,,Clear,0,2013-05-27 05:15:00
1:35 AM,46.4,39.2,76,30.12,10.0,North,-9999.0,-,N/A,,Clear,0,2013-05-27 05:35:00
1:55 AM,46.4,39.2,76,30.12,10.0,North,-9999.0,-,N/A,,Partly Cloudy,0,2013-05-27 05:55:00
2:15 AM,46.4,39.2,76,30.12,10.0,North,-9999.0,-,N/A,,Clear,0,2013-05-27 06:15:00
2:35 AM,46.4,39.2,76,30.12,10.0,North,-9999.0,-,N/A,,Clear,0,2013-05-27 06:35:00
2:55 AM,44.6,39.2,81,30.12,10.0,North,-9999.0,-,N/A,,Clear,0,2013-05-27 06:55:00
3:15 AM,44.6,39.2,81,30.12,10.0,North,-9999.0,-,N/A,,Clear,0,2013-05-27 07:15:00
3:35 AM,44.6,39.2,81,30.13,10.0,North,-9999.0,-,N/A,,Clear,0,2013-05-27 07:35:00
3:55 AM,44.6,39.2,81,30.12,10.0,North,-9999.0,-,N/A,,Clear,0,2013-05-27 07:55:00
4:15 AM,44.6,39.2,81,30.13,10.0,North,-9999.0,-,N/A,,Clear,0,2013-05-27 08:15:00
4:35 AM,44.6,39.2,81,30.12,10.0,North,-9999.0,-,N/A,,Clear,0,2013-05-27 08:35:00
4:55 AM,44.6,39.2,81,30.13,10.0,North,-9999.0,-,N/A,,Clear,0,2013-05-27 08:55:00
5:15 AM,44.6,39.2,81,30.13,10.0,North,-9999.0,-,N/A,,Clear,0,2013-05-27 09:15:00
5:35 AM,44.6,39.2,81,30.13,10.0,North,-9999.0,-,N/A,,Clear,0,2013-05-27 09:35:00
5:55 AM,44.6,41.0,87,30.13,10.0,North,-9999.0,-,N/A,,Clear,0,2013-05-27 09:55:00
6:15 AM,46.4,41.0,81,30.14,10.0,North,-9999.0,-,N/A,,Clear,0,2013-05-27 10:15:00
6:35 AM,46.4,41.0,81,30.14,10.0,North,-9999.0,-,N/A,,Clear,0,2013-05-27 10:35:00
6:55 AM,48.2,41.0,76,30.14,10.0,North,-9999.0,-,N/A,,Clear,0,2013-05-27 10:55:00
7:15 AM,51.8,41.0,67,30.13,10.0,North,-9999.0,-,N/A,,Clear,0,2013-05-27 11:15:00
7:35 AM,51.8,41.0,67,30.13,10.0,North,-9999.0,-,N/A,,Clear,0,2013-05-27 11:35:00
7:55 AM,53.6,42.8,67,30.13,10.0,North,-9999.0,-,N/A,,Clear,0,2013-05-27 11:55:00
8:15 AM,55.4,42.8,63,30.13,10.0,North,-9999.0,-,N/A,,Clear,0,2013-05-27 12:15:00
8:35 AM,57.2,42.8,59,30.14,10.0,North,-9999.0,-,N/A,,Clear,0,2013-05-27 12:35:00
8:55 AM,60.8,42.8,52,30.14,10.0,North,-9999.0,-,N/A,,Clear,0,2013-05-27 12:55:00
9:15 AM,60.8,41.0,48,30.14,10.0,North,-9999.0,-,N/A,,Clear,0,2013-05-27 13:15:00
9:35 AM,62.6,41.0,45,30.13,10.0,North,-9999.0,-,N/A,,Clear,0,2013-05-27 13:35:00
9:55 AM,64.4,39.2,40,30.13,10.0,North,-9999.0,-,N/A,,Clear,0,2013-05-27 13:55:00
10:15 AM,64.4,39.2,40,30.13,10.0,North,-9999.0,-,N/A,,Clear,0,2013-05-27 14:15:00
10:35 AM,66.2,37.4,35,30.13,10.0,North,-9999.0,-,N/A,,Clear,0,2013-05-27 14:35:00
10:55 AM,66.2,35.6,32,30.13,10.0,North,-9999.0,-,N/A,,Clear,0,2013-05-27 14:55:00
11:15 AM,66.2,33.8,30,30.13,10.0,North,-9999.0,-,N/A,,Clear,0,2013-05-27 15:15:00
11:35 AM,66.2,33.8,30,30.12,10.0,North,-9999.0,-,N/A,,Clear,0,2013-05-27 15:35:00
11:55 AM,68.0,33.8,28,30.12,10.0,North,-9999.0,-,N/A,,Clear,0,2013-05-27 15:55:00
12:15 PM,68.0,33.8,28,30.12,10.0,North,-9999.0,-,N/A,,Clear,0,2013-05-27 16:15:00
12:35 PM,68.0,35.6,30,30.12,10.0,North,-9999.0,-,N/A,,Clear,0,2013-05-27 16:35:00
12:55 PM,69.8,33.8,27,30.11,10.0,North,-9999.0,-,N/A,,Clear,0,2013-05-27 16:55:00
1:15 PM,69.8,33.8,27,30.11,10.0,North,-9999.0,-,N/A,,Clear,0,2013-05-27 17:15:00
1:35 PM,69.8,33.8,27,30.10,10.0,North,-9999.0,-,N/A,,Partly Cloudy,0,2013-05-27 17:35:00
1:55 PM,69.8,33.8,27,30.10,10.0,North,-9999.0,-,N/A,,Clear,0,2013-05-27 17:55:00
2:15 PM,69.8,32.0,25,30.10,10.0,North,-9999.0,-,N/A,,Clear,0,2013-05-27 18:15:00
2:35 PM,71.6,35.6,27,30.09,10.0,North,-9999.0,-,N/A,,Clear,0,2013-05-27 18:35:00
2:55 PM,69.8,35.6,28,30.09,10.0,North,-9999.0,-,N/A,,Clear,0,2013-05-27 18:55:00
3:15 PM,71.6,37.4,29,30.09,10.0,North,-9999.0,-,N/A,,Clear,0,2013-05-27 19:15:00
3:35 PM,71.6,35.6,27,30.09,10.0,North,-9999.0,-,N/A,,Clear,0,2013-05-27 19:35:00
3:55 PM,73.4,37.4,27,30.08,10.0,North,-9999.0,-,N/A,,Clear,0,2013-05-27 19:55:00
4:15 PM,71.6,35.6,27,30.08,10.0,North,-9999.0,-,N/A,,Clear,0,2013-05-27 20:15:00
4:35 PM,71.6,35.6,27,30.08,10.0,North,-9999.0,-,N/A,,Clear,0,2013-05-27 20:35:00
4:55 PM,73.4,33.8,23,30.08,10.0,North,-9999.0,-,N/A,,Clear,0,2013-05-27 20:55:00
5:15 PM,71.6,35.6,27,30.09,10.0,North,-9999.0,-,N/A,,Clear,0,2013-05-27 21:15:00
5:35 PM,69.8,39.2,33,30.08,10.0,North,-9999.0,-,N/A,,Clear,0,2013-05-27 21:35:00
5:55 PM,68.0,41.0,37,30.09,10.0,North,-9999.0,-,N/A,,Clear,0,2013-05-27 21:55:00
6:55 PM,64.4,42.8,45,30.11,10.0,North,-9999.0,-,N/A,,Clear,0,2013-05-27 22:55:00
7:15 PM,62.6,42.8,48,30.11,10.0,North,-9999.0,-,N/A,,Clear,0,2013-05-27 23:15:00
7:35 PM,62.6,42.8,48,30.12,10.0,North,-9999.0,-,N/A,,Clear,0,2013-05-27 23:35:00
7:55 PM,59.0,44.6,59,30.12,10.0,North,-9999.0,-,N/A,,Clear,0,2013-05-27 23:55:00
8:15 PM,55.4,46.4,72,30.13,10.0,North,-9999.0,-,N/A,,Clear,0,2013-05-28 00:15:00
8:35 PM,53.6,46.4,77,30.13,10.0,North,-9999.0,-,N/A,,Clear,0,2013-05-28 00:35:00
8:55 PM,51.8,46.4,82,30.14,10.0,North,-9999.0,-,N/A,,Clear,0,2013-05-28 00:55:00
9:15 PM,51.8,46.4,82,30.15,10.0,North,-9999.0,-,N/A,,Clear,0,2013-05-28 01:15:00
9:35 PM,51.8,46.4,82,30.15,10.0,North,-9999.0,-,N/A,,Clear,0,2013-05-28 01:35:00
9:55 PM,50.0,46.4,87,30.16,10.0,North,-9999.0,-,N/A,,Clear,0,2013-05-28 01:55:00
10:15 PM,48.2,46.4,93,30.16,10.0,North,-9999.0,-,N/A,,Clear,0,2013-05-28 02:15:00
10:35 PM,48.2,46.4,93,30.17,10.0,North,-9999.0,-,N/A,,Clear,0,2013-05-28 02:35:00
10:55 PM,48.2,46.4,93,30.17,10.0,North,-9999.0,-,N/A,,Clear,0,2013-05-28 02:55:00
11:15 PM,48.2,46.4,93,30.18,10.0,North,-9999.0,-,N/A,,Clear,0,2013-05-28 03:15:00
11:35 PM,46.4,44.6,93,30.18,10.0,North,-9999.0,-,N/A,,Clear,0,2013-05-28 03:35:00
11:55 PM,46.4,44.6,93,30.18,10.0,North,-9999.0,-,N/A,,Clear,0,2013-05-28 03:55:00